Date String (YYYY-MM-DD hh:mm:ss) UTC,Instrument flags,absolute air pressure of the measurement (hPa),sample flow rate (lpm),inlet stack bypass flow (lpm),air temperature of the measurement (°C),ambient temperature measured by the external sensor (°C),aerosol sample conditioner tube jacket temperature (°C),OPC LED temperature (°C),internal box temperature (°C),relative humidity of the measurement (%),span deviation,mass concentration of particles derived from Lorenz-Mie calculation of OPC scattering (μg/m³),mass concentration of particles derived from Lorenz-Mie calculation of OPC scattering (μg/m³),mass concentration of particles derived from Lorenz-Mie calculation of OPC scattering (μg/m³)
DateTimeUTC,F1_M11,P_M11,Q1_M11,Q2_M11,T1_M11,T2_M11,T3_M11,T4_M11,T5_M11,U1_M11,ZSPAN_M11,X2_M11,X0_M11,X1_M11
2024-05-10 06:00:00,SystemResetWarning,0837.0,4.99,000.00,025.9,025.4,000.0,034.1,027.6,021.2,0000.0,0001.95,0003.48,0001.56
2024-05-10 06:01:00,SystemResetWarning,0837.1,5.01,000.00,025.9,025.4,000.0,034.1,027.7,021.1,0000.0,0001.94,0003.46,0001.55
2024-05-10 06:02:00,SystemResetWarning,0837.1,5.01,000.00,025.9,025.4,000.0,034.1,027.7,021.0,0000.0,0001.88,0003.12,0001.53
2024-05-10 06:03:00,SystemResetWarning,0837.1,5.00,000.00,025.9,025.4,000.0,034.1,027.7,020.9,0000.0,0001.89,0003.02,0001.54
2024-05-10 06:04:00,SystemResetWarning,0837.2,5.00,000.00,025.9,025.4,000.0,034.1,027.7,020.8,0000.0,0001.88,0002.99,0001.52
2024-05-10 06:05:00,SystemResetWarning,0837.2,5.00,000.00,026.0,025.4,000.0,034.2,027.7,020.8,0000.0,0001.90,0003.04,0001.52
2024-05-10 06:06:00,SystemResetWarning,0837.2,5.00,000.00,026.0,025.4,000.0,034.2,027.7,020.8,0000.0,0001.94,0003.12,0001.53
2024-05-10 06:07:00,SystemResetWarning,0837.2,5.00,000.00,026.0,025.4,000.0,034.2,027.7,020.7,0000.0,0001.91,0003.06,0001.52
2024-05-10 06:08:00,SystemResetWarning,0837.2,5.00,000.00,026.0,025.4,000.0,034.2,027.7,020.7,0000.0,0001.87,0002.94,0001.51
2024-05-10 06:09:00,SystemResetWarning,0837.2,5.00,000.00,026.0,025.5,000.0,034.2,027.7,020.7,0000.0,0001.87,0002.98,0001.50
2024-05-10 06:10:00,SystemResetWarning,0837.2,5.01,000.00,026.0,025.5,000.0,034.2,027.7,020.7,0000.0,0001.87,0002.83,0001.49
2024-05-10 06:11:00,SystemResetWarning,0837.2,5.00,000.00,026.0,025.5,000.0,034.3,027.8,020.6,0000.0,0001.79,0002.46,0001.47
2024-05-10 06:12:00,SystemResetWarning,0837.2,5.01,000.00,026.0,025.5,000.0,034.3,027.8,020.6,0000.0,0001.76,0002.43,0001.46
2024-05-10 06:13:00,SystemResetWarning,0837.2,5.00,000.00,026.0,025.5,000.0,034.3,027.8,020.6,0000.0,0001.78,0002.47,0001.46
2024-05-10 06:14:00,SystemResetWarning,0837.2,4.99,000.00,026.1,025.5,000.0,034.3,027.8,020.5,0000.0,0001.78,0002.50,0001.45
2024-05-10 06:15:00,SystemResetWarning,0837.2,4.99,000.00,026.1,025.5,000.0,034.3,027.8,020.8,0000.0,0001.80,0002.58,0001.45
2024-05-10 06:16:00,SystemResetWarning,0837.2,5.01,000.00,026.1,025.5,000.0,034.3,027.8,020.7,0000.0,0001.80,0002.67,0001.45
2024-05-10 06:17:00,SystemResetWarning,0837.2,5.01,000.00,026.1,025.5,000.0,034.3,027.8,020.8,0000.0,0001.77,0002.64,0001.44
2024-05-10 06:18:00,SystemResetWarning,0837.2,5.01,000.00,026.1,025.5,000.0,034.3,027.8,020.9,0000.0,0001.78,0002.64,0001.44
2024-05-10 06:19:00,SystemResetWarning,0837.2,5.00,000.00,026.1,025.5,000.0,034.3,027.9,021.1,0000.0,0001.78,0002.66,0001.43
2024-05-10 06:20:00,SystemResetWarning,0837.2,5.00,000.00,026.1,025.6,000.0,034.3,027.9,021.2,0000.0,0001.75,0002.59,0001.42
2024-05-10 06:21:00,SystemResetWarning,0837.2,5.00,000.00,026.1,025.6,000.0,034.3,027.9,021.0,0000.0,0001.71,0002.51,0001.42
2024-05-10 06:22:00,SystemResetWarning,0837.2,5.00,000.00,026.1,025.6,000.0,034.4,027.9,020.9,0000.0,0001.74,0002.59,0001.43
2024-05-10 06:23:00,SystemResetWarning,0837.2,5.00,000.00,026.1,025.6,000.0,034.4,027.9,020.9,0000.0,0001.76,0002.73,0001.43
2024-05-10 06:24:00,SystemResetWarning,0837.2,4.99,000.00,026.2,025.6,000.0,034.4,027.9,020.8,0000.0,0001.76,0002.72,0001.43
2024-05-10 06:25:00,SystemResetWarning,0837.2,5.00,000.00,026.2,025.6,000.0,034.4,027.9,020.8,0000.0,0001.73,0002.67,0001.43
2024-05-10 06:26:00,SystemResetWarning,0837.2,5.00,000.00,026.2,025.6,000.0,034.4,027.9,021.0,0000.0,0001.71,0002.60,0001.42
2024-05-10 06:27:00,SystemResetWarning,0837.2,5.00,000.00,026.2,025.6,000.0,034.4,027.9,020.8,0000.0,0001.65,0002.64,0001.41
2024-05-10 06:28:00,SystemResetWarning,0837.2,5.00,000.00,026.2,025.6,000.0,034.4,027.9,020.7,0000.0,0001.64,0002.66,0001.41
2024-05-10 06:29:00,SystemResetWarning,0837.2,5.00,000.00,026.2,025.6,000.0,034.4,027.9,020.7,0000.0,0001.63,0002.66,0001.41
2024-05-10 06:30:00,SystemResetWarning,0837.1,4.99,000.00,026.2,025.6,000.0,034.4,027.9,020.7,0000.0,0001.64,0002.69,0001.42
2024-05-10 06:31:00,SystemResetWarning,0837.1,5.00,000.00,026.2,025.6,000.0,034.4,027.9,020.7,0000.0,0001.66,0002.82,0001.42
2024-05-10 06:32:00,SystemResetWarning,0837.1,5.00,000.00,026.2,025.6,000.0,034.4,027.9,020.7,0000.0,0001.67,0002.85,0001.42
2024-05-10 06:33:00,SystemResetWarning,0837.1,5.01,000.00,026.2,025.6,000.0,034.4,027.9,020.8,0000.0,0001.65,0002.83,0001.41
2024-05-10 06:34:00,SystemResetWarning,0837.1,5.00,000.00,026.2,025.6,000.0,034.5,027.9,021.1,0000.0,0001.67,0002.83,0001.43
2024-05-10 06:35:00,SystemResetWarning,0837.0,4.99,000.00,026.1,024.3,000.0,034.5,027.3,021.4,0000.0,0001.70,0002.99,0001.45
2024-05-10 06:36:00,SystemResetWarning,0837.0,5.01,000.00,025.6,022.2,000.0,034.5,026.2,022.1,0000.0,0001.71,0002.99,0001.46
2024-05-10 06:37:00,SystemResetWarning,0837.0,5.01,000.00,025.3,022.0,000.0,034.4,026.0,022.7,0000.0,0001.76,0003.07,0001.49
2024-05-10 06:38:00,SystemResetWarning,0837.0,5.00,000.00,025.1,022.4,000.0,034.3,026.1,022.8,0000.0,0001.83,0003.25,0001.54
2024-05-10 06:39:00,SystemResetWarning,0836.9,4.99,000.00,025.1,022.8,000.0,034.1,026.3,022.7,0000.0,0001.90,0003.82,0001.59
2024-05-10 06:40:00,SystemResetWarning,0836.9,5.00,000.00,025.1,023.1,000.0,034.0,026.5,022.5,0000.0,0001.92,0003.86,0001.62
2024-05-10 06:41:00,SystemResetWarning,0836.8,5.01,000.00,025.1,023.4,000.0,033.9,026.6,022.4,0000.0,0001.97,0004.01,0001.65
2024-05-10 06:42:00,SystemResetWarning,0836.8,4.98,000.00,025.1,023.7,000.0,033.8,026.7,022.5,0000.0,0002.00,0003.96,0001.68
2024-05-10 06:43:00,SystemResetWarning,0836.8,4.99,000.00,025.2,023.9,000.0,033.8,026.8,022.3,0000.0,0002.02,0003.99,0001.70
2024-05-10 06:44:00,SystemResetWarning,0836.8,5.00,000.00,025.2,024.1,000.0,033.7,026.9,022.1,0000.0,0002.04,0004.35,0001.71
2024-05-10 06:45:00,SystemResetWarning,0836.8,5.02,000.00,025.2,024.3,000.0,033.7,026.9,021.9,0000.0,0002.03,0005.19,0001.71
2024-05-10 06:46:00,SystemResetWarning,0836.8,5.00,000.00,025.2,024.4,000.0,033.7,027.0,021.7,0000.0,0002.01,0005.00,0001.70
2024-05-10 06:47:00,SystemResetWarning,0836.8,4.99,000.00,025.3,024.5,000.0,033.7,027.0,021.6,0000.0,0002.02,0005.14,0001.69
2024-05-10 06:48:00,SystemResetWarning,0836.8,5.01,000.00,025.3,024.6,000.0,033.7,027.1,021.5,0000.0,0002.03,0005.28,0001.68
2024-05-10 06:49:00,SystemResetWarning,0836.8,5.01,000.00,025.3,024.7,000.0,033.7,027.1,021.6,0000.0,0002.05,0005.24,0001.64
2024-05-10 06:50:00,SystemResetWarning,0836.7,5.00,000.00,025.3,024.7,000.0,033.7,027.1,021.6,0000.0,0002.00,0004.50,0001.61
2024-05-10 06:51:00,SystemResetWarning,0836.8,4.99,000.00,025.4,024.8,000.0,033.7,027.2,021.5,0000.0,0001.99,0004.81,0001.58
2024-05-10 06:52:00,SystemResetWarning,0836.8,4.99,000.00,025.4,024.8,000.0,033.7,027.2,021.6,0000.0,0001.99,0004.86,0001.57
2024-05-10 06:53:00,SystemResetWarning,0836.8,5.01,000.00,025.4,024.9,000.0,033.7,027.2,021.7,0000.0,0001.95,0004.76,0001.55
2024-05-10 06:54:00,SystemResetWarning,0836.8,5.01,000.00,025.5,024.9,000.0,033.7,027.2,021.7,0000.0,0001.96,0004.82,0001.55
2024-05-10 06:55:00,SystemResetWarning,0836.8,5.00,000.00,025.5,025.0,000.0,033.7,027.3,021.6,0000.0,0001.95,0004.82,0001.55
2024-05-10 06:56:00,SystemResetWarning,0836.8,5.00,000.00,025.5,025.0,000.0,033.7,027.3,021.4,0000.0,0001.95,0003.84,0001.54
2024-05-10 06:57:00,SystemResetWarning,0836.8,5.00,000.00,025.5,025.0,000.0,033.7,027.3,021.4,0000.0,0001.93,0003.75,0001.54
2024-05-10 06:58:00,SystemResetWarning,0836.7,5.00,000.00,025.6,025.1,000.0,033.7,027.3,021.4,0000.0,0001.89,0003.57,0001.55
2024-05-10 06:59:00,SystemResetWarning,0836.6,5.00,000.00,025.6,025.1,000.0,033.8,027.4,021.3,0000.0,0001.87,0003.44,0001.55
